Yakima, WA
on Monday, February 11, 2013

Monday
Previous Day Next Day
Daily Summary
 ActualAverageRecord
Temperature
Mean Temperature °F / °C 35°F / 2°C  
Max Temperature 55°F / 13°C 45°F / 7°C 61°F / 16°C (1971)
Min Temperature 22°F / -6°C 26°F / -3°C 5°F / -15°C (1948)
Degree Days
Heating Degree Days 26 30  
Month to date heating degree days 277 335  
Since 1 July heating degree days 3546 4053  
Cooling Degree Days 0 0  
Month to date cooling degree days 0 0  
Year to date cooling degree days 0 0  
Moisture
Dew Point 27°F / -3°C   
Average Humidity 65    
Maximum Humidity 88    
Minimum Humidity 41    
Precipitation
Precipitation 0.00 in / 0.00 cm 0.03 in / 0.76 cm 0.36 in / 0.91 cm (1958)
Month to date precipitation T 0.32  
Year to date precipitation 0.10 1.46  
Snow
Snow 0.00 in / 0.00 cm 0.10 in / 0.25 cm 2.80 in / 7.11 cm (1954)
Month to date snowfall 0.0 1.2  
Year to date snowfall 1.1 6.5  
Since 1 July snowfall 15.3 19.5  
Snow Depth 0.00 in / 0.00 cm   
Wind
Wind Speed 3 mph / 5 km/h   
Max Wind Speed 16 mph / 26 km/h   
Max Gust Speed 20 mph / 32 km/h   
Visibility 10 miles / 16 kilometers   
Events     

Key: T is trace of precipitation, MM is missing value
Source: NWS Daily Summary
Time(PST)TemperatureDew PointHumidity Pressure Visibility Wind DirectionWind SpeedGust SpeedPrecipitationEvents Conditions
12:53 AM 28.0°F / -2.2°C 23.0°F / -5.0°C 81% 30.22 in / 1023.4 hPa 9.0 miles / 14.5 kilometers Calm Calm - N/A   Clear
1:53 AM 27.0°F / -2.8°C 21.9°F / -5.6°C 81% 30.23 in / 1023.6 hPa 10.0 miles / 16.1 kilometers West 3.5 mph / 5.6 km/h - N/A   Clear
2:53 AM 25.0°F / -3.9°C 21.0°F / -6.1°C 85% 30.23 in / 1023.7 hPa 10.0 miles / 16.1 kilometers West 6.9 mph / 11.1 km/h - N/A   Clear
3:53 AM 26.1°F / -3.3°C 21.0°F / -6.1°C 81% 30.22 in / 1023.2 hPa 10.0 miles / 16.1 kilometers WNW 6.9 mph / 11.1 km/h - N/A   Clear
4:53 AM 24.1°F / -4.4°C 19.9°F / -6.7°C 84% 30.22 in / 1023.2 hPa 10.0 miles / 16.1 kilometers Calm Calm - N/A   Clear
5:53 AM 23.0°F / -5.0°C 19.0°F / -7.2°C 85% 30.22 in / 1023.3 hPa 10.0 miles / 16.1 kilometers West 4.6 mph / 7.4 km/h - N/A   Clear
6:53 AM 24.1°F / -4.4°C 19.9°F / -6.7°C 84% 30.24 in / 1023.8 hPa 10.0 miles / 16.1 kilometers WSW 3.5 mph / 5.6 km/h - N/A   Clear
7:53 AM 27.0°F / -2.8°C 21.9°F / -5.6°C 81% 30.23 in / 1023.7 hPa 10.0 miles / 16.1 kilometers West 6.9 mph / 11.1 km/h - N/A   Clear
8:53 AM 30.9°F / -0.6°C 25.0°F / -3.9°C 79% 30.24 in / 1023.8 hPa 9.0 miles / 14.5 kilometers East 3.5 mph / 5.6 km/h - N/A   Partly Cloudy
9:53 AM 35.1°F / 1.7°C 28.0°F / -2.2°C 76% 30.23 in / 1023.6 hPa 10.0 miles / 16.1 kilometers East 3.5 mph / 5.6 km/h - N/A   Partly Cloudy
10:53 AM 43.0°F / 6.1°C 30.0°F / -1.1°C 60% 30.23 in / 1023.5 hPa 10.0 miles / 16.1 kilometers NE 3.5 mph / 5.6 km/h - N/A   Partly Cloudy
11:53 AM 48.0°F / 8.9°C 30.0°F / -1.1°C 50% 30.22 in / 1023.2 hPa 10.0 miles / 16.1 kilometers Calm Calm - N/A   Partly Cloudy
12:53 PM 50.0°F / 10.0°C 30.9°F / -0.6°C 48% 30.20 in / 1022.6 hPa 10.0 miles / 16.1 kilometers SE 6.9 mph / 11.1 km/h - N/A   Partly Cloudy
1:53 PM 55.0°F / 12.8°C 32.0°F / 0.0°C 42% 30.19 in / 1022.2 hPa 10.0 miles / 16.1 kilometers Variable 4.6 mph / 7.4 km/h - N/A   Partly Cloudy
2:53 PM 53.1°F / 11.7°C 33.1°F / 0.6°C 47% 30.19 in / 1022.3 hPa 10.0 miles / 16.1 kilometers SSE 8.1 mph / 13.0 km/h - N/A   Partly Cloudy
3:53 PM 50.0°F / 10.0°C 32.0°F / 0.0°C 50% 30.21 in / 1022.9 hPa 10.0 miles / 16.1 kilometers SE 8.1 mph / 13.0 km/h - N/A   Clear
4:53 PM 48.0°F / 8.9°C 32.0°F / 0.0°C 54% 30.22 in / 1023.3 hPa 10.0 miles / 16.1 kilometers Calm Calm - N/A   Clear
5:53 PM 46.0°F / 7.8°C 30.9°F / -0.6°C 56% 30.23 in / 1023.5 hPa 10.0 miles / 16.1 kilometers Calm Calm - N/A   Clear
6:53 PM 39.9°F / 4.4°C 28.9°F / -1.7°C 65% 30.25 in / 1024.1 hPa 10.0 miles / 16.1 kilometers Calm Calm - N/A   Clear
7:53 PM 37.0°F / 2.8°C 28.9°F / -1.7°C 73% 30.26 in / 1024.6 hPa 10.0 miles / 16.1 kilometers Calm Calm - N/A   Clear
8:53 PM 37.0°F / 2.8°C 28.9°F / -1.7°C 73% 30.26 in / 1024.5 hPa 10.0 miles / 16.1 kilometers Calm Calm - N/A   Partly Cloudy
9:53 PM 36.0°F / 2.2°C 28.9°F / -1.7°C 76% 30.26 in / 1024.6 hPa 10.0 miles / 16.1 kilometers Calm Calm - N/A   Clear
10:53 PM 33.1°F / 0.6°C 27.0°F / -2.8°C 78% 30.27 in / 1024.8 hPa 8.0 miles / 12.9 kilometers Calm Calm - N/A   Scattered Clouds
11:53 PM 34.0°F / 1.1°C 28.0°F / -2.2°C 79% 30.27 in / 1024.8 hPa 7.0 miles / 11.3 kilometers Calm Calm - N/A   Clear
Moon Phase
Feb. 11 Feb. 17 Feb. 25 Mar. 04 Mar. 11
Sunrise:07:11 AM (PST) Moon Rise:07:29 AM (PST)2/11
Sunset:05:21 PM (PST) Moon Set:07:35 PM (PST)2/11

Copyright © 2014 The Weather Underground, Inc.